Location: Killam
(52.7910°N, 111.8608°W)
Time: 20:35:21
(UTC+00:00)

A-11 Canister half - Pass Details

Date: 22 February 2026
Orbit: 1525 x 1683 km, 47.3° (Epoch: 9 March)

Event Time Altitude Azimuth Distance (km) Brightness Sun altitude
Rises 01:55:24 0° 264° (W) 4,704 13.9 -10.3°
Reaches altitude 10° 01:58:29 10° 261° (W) 3,709 12.6 -10.8°
Maximum altitude 02:07:37 63° 184° (S) 1,672 9.2 -12.2°
Enters shadow 02:15:34 15° 107° (ESE) 3,331 10.2 -13.4°
Drops below altitude 10° 02:16:45 10° 106° (ESE) 3,703 - -13.5°
Sets 02:19:50 0° 103° (ESE) 4,697 - -14.0°
